Location: Olmeneta
(45.2333°N, 10.0167°E)
Time: 14:55:07
(UTC+00:00)

ERS-2 - Pass Details

Date: 03 March 2021
Orbit: 492 x 496 km, 98.6° (Epoch: 11 April)

Event Time Altitude Azimuth Distance (km) Brightness Sun altitude
Rises 18:22:51 0° 12° (NNE) 2,593 5.7 -13.6°
Reaches altitude 10° 18:24:56 10° 10° (N) 1,706 4.8 -14.0°
Maximum altitude 18:28:35 71° 287° (WNW) 529 2.4 -14.6°
Drops below altitude 10° 18:32:13 10° 202° (SSW) 1,692 5.0 -15.3°
Sets 18:34:17 0° 201° (SSW) 2,570 5.9 -15.6°
